Total_Precipitation_Accumulation
1.24 1.19 1.07 1.14 1.12 1.11 1.12 1.14 1.11 1.14 1.21 1.17 1.09 1.08 1.11 1.09 1.02 1.03 1.31 1.93 2.92 3.67 3.90 3.80 3.26 2.94 2.77 2.49 2.40 2.60 2.75 2.75 2.63 2.56 2.68 2.78 2.70 2.48 2.39 2.33 2.39 2.36 2.38
1.13 1.16 1.13 1.18 1.18 1.16 1.10 1.04 1.02 1.16 1.20 1.23 1.19 1.12 1.08 0.99 1.00 1.14 1.37 1.58 1.88 2.56 3.54 3.86 3.60 3.32 3.13 2.84 2.66 2.62 2.63 2.58 2.50 2.47 2.49 2.48 2.40 2.19 2.14 2.33 2.53 2.39 2.30
1.11 1.14 1.15 1.17 1.18 1.20 1.18 1.16 1.16 1.23 1.26 1.35 1.36 1.19 1.11 1.06 1.02 1.12 1.26 1.44 1.34 1.47 2.30 3.20 3.58 3.38 3.30 3.11 2.80 2.71 2.61 2.54 2.36 2.45 2.41 2.37 2.24 2.16 2.12 2.36 2.54 2.48 2.30
1.06 1.15 1.17 1.20 1.27 1.21 1.21 1.30 1.33 1.40 1.43 1.48 1.48 1.28 1.11 1.21 1.13 1.11 1.26 1.32 1.33 1.29 1.53 1.94 2.39 2.76 3.20 3.36 3.15 2.90 2.67 2.47 2.21 2.31 2.32 2.23 2.13 2.14 2.13 2.40 2.41 2.40 2.32
1.21 1.32 1.38 1.38 1.40 1.42 1.37 1.28 1.31 1.43 1.57 1.57 1.39 1.31 1.22 1.26 1.26 1.22 1.39 1.39 1.39 1.38 1.43 1.38 1.47 1.80 2.43 3.04 3.19 3.07 2.78 2.44 2.23 2.21 2.21 2.06 2.14 2.21 2.13 2.23 2.24 2.21 2.21
1.44 1.61 1.67 1.55 1.58 1.70 1.77 1.60 1.64 1.55 1.51 1.60 1.42 1.38 1.38 1.34 1.30 1.36 1.41 1.49 1.60 1.43 1.40 1.35 1.32 1.18 1.51 2.04 2.57 2.97 3.01 2.82 2.54 2.42 2.40 2.10 2.07 2.17 2.19 2.13 2.09 2.11 2.09
1.78 1.97 2.01 2.00 2.00 2.01 1.98 1.91 2.07 1.97 1.68 1.61 1.85 1.85 1.67 1.48 1.39 1.36 1.39 1.62 1.72 1.62 1.64 1.57 1.46 1.31 1.18 1.20 1.61 2.46 2.97 3.16 3.06 2.76 2.64 2.42 2.06 1.98 2.08 1.96 1.96 2.03 2.07
2.02 2.05 2.28 2.40 2.38 2.57 2.59 2.36 2.48 2.51 2.10 1.84 2.16 2.51 2.22 1.97 1.52 1.40 1.51 1.56 1.66 1.75 1.79 1.64 1.48 1.37 1.34 1.31 1.18 1.66 2.19 2.83 3.19 2.93 2.88 2.87 2.32 2.06 1.94 1.87 1.93 1.98 2.07
2.20 2.27 2.37 2.53 2.53 2.63 2.84 2.96 2.85 2.93 2.72 2.28 2.15 2.52 2.47 2.28 2.05 1.66 1.55 1.62 1.76 1.81 1.86 1.84 1.64 1.38 1.35 1.43 1.26 1.18 1.42 1.79 2.51 2.93 3.08 3.21 2.75 2.29 1.93 1.87 1.90 1.87 2.05
2.45 2.57 2.58 2.64 2.66 2.67 2.78 2.95 2.94 3.11 3.23 2.82 2.44 2.19 2.04 2.05 2.22 2.04 1.75 1.68 1.81 1.80 1.80 1.83 1.86 1.69 1.51 1.55 1.43 1.17 1.15 1.28 1.74 2.46 2.89 3.27 3.12 2.63 2.15 2.05 2.10 2.04 2.09
2.59 2.65 2.72 2.85 2.83 2.80 2.73 2.94 3.03 3.15 3.11 3.06 2.91 2.73 2.57 2.32 1.96 2.11 2.11 1.91 1.78 1.65 1.70 1.84 2.00 1.94 1.78 1.69 1.77 1.37 1.11 1.12 1.28 1.90 2.45 3.19 3.38 2.99 2.69 2.50 2.33 2.22 2.04
2.65 2.53 2.46 2.64 2.70 2.73 2.69 2.84 2.97 3.11 3.10 3.15 3.08 2.79 2.82 2.73 2.35 2.30 2.14 1.97 1.98 1.77 1.67 1.75 1.81 1.80 1.78 1.75 1.64 1.55 1.23 1.08 1.14 1.44 1.95 2.62 3.30 3.28 3.10 2.99 2.73 2.62 2.40
2.46 2.47 2.40 2.42 2.46 2.40 2.38 2.50 2.55 2.62 2.77 2.96 2.85 2.61 2.57 2.42 2.41 2.52 2.43 2.19 1.97 1.73 1.72 1.68 1.65 1.68 1.65 1.65 1.70 1.72 1.30 1.07 1.08 1.24 1.66 2.05 2.55 3.09 3.23 3.09 2.98 3.06 3.07
2.17 2.23 2.26 2.23 2.28 2.31 2.25 2.35 2.37 2.37 2.41 2.47 2.39 2.49 2.56 2.39 2.32 2.34 2.43 2.64 2.41 2.08 1.88 1.72 1.68 1.72 1.69 1.63 1.74 1.77 1.38 1.21 1.10 1.13 1.34 1.64 1.98 2.50 2.91 2.91 2.96 3.16 3.26
1.71 1.78 1.85 2.00 2.13 2.19 2.21 2.32 2.39 2.36 2.28 2.25 2.34 2.42 2.35 2.29 2.27 2.20 2.23 2.44 2.60 2.42 2.20 1.98 1.83 1.79 1.82 1.72 1.79 1.57 1.49 1.39 1.21 1.20 1.25 1.24 1.42 1.77 2.07 2.32 2.54 2.55 2.73
1.35 1.40 1.50 1.71 2.03 2.17 2.20 2.27 2.32 2.33 2.34 2.26 2.33 2.45 2.49 2.44 2.46 2.40 2.30 2.30 2.28 2.34 2.22 1.96 1.79 1.74 1.90 1.78 1.91 1.59 1.52 1.69 1.44 1.37 1.30 1.17 1.17 1.26 1.41 1.65 1.96 2.12 2.17
1.24 1.30 1.37 1.53 1.71 1.95 2.18 2.33 2.33 2.27 2.24 2.20 2.12 2.24 2.38 2.44 2.55 2.59 2.61 2.51 2.39 2.35 2.25 2.04 1.86 1.78 1.97 2.00 1.92 1.79 1.61 1.53 1.51 1.51 1.40 1.33 1.25 1.15 1.19 1.29 1.56 1.81 2.03
1.13 1.16 1.32 1.52 1.64 1.73 1.83 1.94 2.00 2.03 2.05 2.07 2.01 1.98 2.06 2.14 2.27 2.43 2.54 2.51 2.53 2.43 2.35 2.32 2.13 1.90 1.81 1.89 1.95 2.03 1.89 1.63 1.55 1.65 1.58 1.48 1.41 1.28 1.17 1.16 1.28 1.39 1.58
1.15 1.14 1.22 1.38 1.46 1.55 1.61 1.69 1.82 1.91 1.92 1.86 1.85 1.75 1.74 1.84 1.96 2.11 2.19 2.31 2.47 2.50 2.50 2.45 2.39 2.19 1.92 1.91 1.99 2.05 2.04 2.07 1.77 1.67 1.68 1.63 1.57 1.53 1.42 1.24 1.16 1.19 1.20
1.18 1.20 1.31 1.37 1.41 1.41 1.54 1.61 1.69 1.70 1.65 1.57 1.56 1.51 1.49 1.53 1.62 1.79 1.92 2.13 2.34 2.46 2.53 2.53 2.48 2.25 2.05 1.98 1.96 2.03 2.14 2.18 2.11 1.84 1.73 1.65 1.73 1.67 1.52 1.39 1.25 1.19 1.20
1.20 1.25 1.31 1.39 1.43 1.44 1.48 1.55 1.51 1.43 1.43 1.42 1.38 1.22 1.18 1.25 1.28 1.39 1.39 1.68 1.96 2.17 2.29 2.36 2.36 2.21 2.00 1.90 1.77 1.82 1.97 2.14 2.19 2.11 2.00 1.73 1.65 1.58 1.54 1.52 1.42 1.32 1.25
1.12 1.15 1.19 1.35 1.45 1.35 1.53 1.50 1.32 1.20 1.19 1.25 1.22 1.11 1.04 1.07 1.00 1.00 1.03 1.27 1.59 1.74 1.90 2.09 2.16 2.04 1.87 1.79 1.85 1.85 1.85 1.90 1.92 1.83 1.80 1.80 1.70 1.61 1.56 1.52 1.55 1.51 1.40
1.08 1.10 1.06 1.18 1.26 1.36 1.39 1.22 1.21 1.14 1.15 1.16 1.18 1.20 1.09 1.00 1.10 0.97 0.94 1.04 1.13 1.25 1.40 1.66 1.87 1.85 1.95 1.87 1.77 1.69 1.71 1.75 1.74 1.78 1.78 1.77 1.66 1.56 1.46 1.44 1.59 1.49 1.48
0.99 1.02 1.02 1.00 1.05 1.19 1.19 1.05 1.12 1.05 1.15 1.20 1.23 1.31 1.32 1.22 1.19 1.27 1.17 1.17 1.13 1.06 1.16 1.07 1.24 1.63 1.80 1.88 1.84 1.86 1.95 1.88 1.71 1.71 1.72 1.72 1.62 1.50 1.36 1.28 1.40 1.31 1.24
0.92 0.90 0.94 0.96 0.99 1.04 1.04 0.96 0.99 1.01 1.15 1.18 1.13 1.27 1.33 1.23 1.34 1.47 1.51 1.51 1.42 1.24 1.36 1.36 1.24 1.34 1.52 1.60 1.72 1.79 1.84 1.77 1.69 1.58 1.45 1.42 1.34 1.37 1.41 1.33 1.28 1.33 1.24
0.93 0.89 0.85 0.83 0.83 0.86 0.96 0.86 0.94 1.00 1.08 1.12 1.15 1.20 1.39 1.30 1.31 1.30 1.34 1.45 1.42 1.25 1.10 1.11 1.07 0.97 0.91 1.04 1.28 1.40 1.67 1.80 1.75 1.63 1.41 1.36 1.37 1.36 1.38 1.27 1.17 1.20 1.21